Location: Friaudour
(46.0460°N, 1.2873°E)
Time: 20:41:05
(UTC+00:00)

Meteor 1-18 Rocket - Pass Details

Date: 14 July 2020
Orbit: 836 x 909 km, 81.2° (Epoch: 14 August)

Event Time Altitude Azimuth Distance (km) Brightness Sun altitude
Rises 01:01:57 0° 349° (NNW) 3,519 8.5 -20.9°
Reaches altitude 10° 01:04:26 10° 349° (N) 2,565 7.6 -20.8°
Maximum altitude 01:10:18 88° 76° (ENE) 883 4.2 -20.5°
Enters shadow 01:12:52 35° 169° (S) 1,377 4.8 -20.4°
